sat.trackr.live / text

‹ back to catalog

STARLINK-3562

NORAD 51861 · 2022-022K

PAYLOAD ACTIVE UNKNOWN

§ Identity

Operator
Country
US
Launch date
2022-03-03
Launch site
AFETR
Launch vehicle
Mass (kg)
RCS (m²)

Purposes: comms

External: N2YO · Heavens-Above · Gunter

§ Orbital elements

Epoch: 2026-09-19T13:05:11.425632Z

Period
93.85 min
Inclination
53.1604°
Eccentricity
0.0001336
Mean motion
15.34391744 rev/d
Perigee alt
461.8 km
Apogee alt
463.6 km
Semi-major
6,840.9 km
B*
2.5744e-5
RAAN
207.8365°
Arg perigee
86.3683°
Mean anomaly
273.7473°
Rev number
25,244

§ Raw data

STARLINK-35621 51861U 22022K   26262.54527113  .00000493  00000+0  25744-4 0  99962 51861  53.1604 207.8365 0001336  86.3683 273.7473 15.34391744252441

JSON: /api/v1/satellites/51861 · /tle

For live sub-satellite position, see the globe view (requires WebGL).

§ Visibility from observer

Set your observer location to see the next 7 days of passes ≥ 10°. The values pass through the URL so the page stays shareable.

No JS? Fill the form by hand. The geolocation button needs JavaScript.